Αρχική σελίδα
METAR-TAF:

METAR-TAF

Αεροδρόμια :

Independence, Κάνσας, Ηνωμένες Πολιτείες Αμερικής

γεωγραφικό πλάτος: 37-09-30N, γεωγραφικό μήκος: 095-46-42W, υψόμετρο: 251 μ

Παρών καιρός

Η αναφορά έγινε 27 λεπτά πριν, στις 11:15 UTC
Άνεμος 6 kt από Β/BA
Θερμοκρασία 8°C
Υγρασία 93%
Πίεση 1007 hPa
Ορατότητα: 16.1 χλμ
Αρκετά νέφη σε ύψος 1400 πόδια
Νεφοσκεπής σε ύψος 4000 πόδια

METAR: KIDP 131115Z AUTO 03006KT 10SM BKN014 OVC040 08/07 A2975 RMK AO2 T00820075

Χρόνος: 05:42 (11:42 UTC)


TAF: λείπει

Μετεωρολογικές αναφορές και προγνώσεις για περισσότερα από 4000 αεροδρόμια (δελτία METAR και TAF).

Οι διαθέσιμοι σταθμοί απεικονίζονται στο χάρτη με κίτρινες και κόκκινες κουκκίδες.

Μετακινήστε το ποντίκι πάνω από τις κουκκίδες για να δείτε το όνομα του σταθμού.

Στη συνέχεια, κάντε κλικ για να δείτε τις μετεωρολογικές αναφορές και τις προγνώσεις καιρού.

Για να αλλάξετε το χάρτη: κάντε κλικ στα πράσινα κουμπιά με τον μαύρο σταυρό για να ζουμάρετε, στο πράσινο κουμπί με την παύλα για να αφαιρέσετε το ζουμ ή στα πράσινα βέλη για να αντιπαραβάλλετε χάρτες.


METAR-TAF: